Flag for Australia Weather past 2 weeks in Cairns, Queensland, Australia

Now
75 °F

Partly cloudy.


Feels Like: 74 °F
Forecast: 79 / 91 °F
Wind: No wind

Location: Cairns Airport

Current Time: Mar 6, 2015 at 6:17:05 AM

Latest Report: Mar 6, 2015 at 5:30 AM


Visibility: N/A

Pressure: 29.71 "Hg

Humidity: 94%

Dew point: 73 °F

Location of CairnsLocation

Historic Weather in Cairns — Graph

°F

Cairns temperature yesterday

Maximum temperature yesterday: 91 °F (at 1:00 PM)
Minimum temperature yesterday: 75 °F (at 3:58 AM)
Average temperature yesterday: 82 °F

Past Weeks' High & Low Weather Summary

 TemperatureHumidityPressure
High95 °F (Feb 22, 12:00 PM)100% (Feb 19, 5:00 AM)29.86 "Hg (Feb 19, 5:00 AM)
Low72 °F (Feb 19, 5:00 AM)44% (Mar 3, 12:30 PM)29.65 "Hg (Feb 26, 3:00 PM)
Average82 °F77%29.75 "Hg
* Reported Feb 19 5:00 AM — Mar 6 5:00 AM, Cairns, Weather by CustomWeather, © 2015

Note: Actual official high and low records may vary slightly from our data, if they occured in-between our weather recording intervals... More about our weather records

Advertising

Cairns weather history for previous 24 hours

 ConditionsComfort  
Time TempWeatherWind HumidityBarometerVisibility
5:00 AM
Fri, Mar 6
75 °FPassing clouds.No wind100%29.71 "HgN/A
4:30 AM77 °FPassing clouds.No wind89%29.71 "HgN/A
4:00 AM77 °FPassing clouds.No wind94%29.68 "HgN/A
3:30 AM77 °FPassing clouds.No wind94%29.71 "HgN/A
3:00 AM77 °FPassing clouds.No wind94%29.71 "HgN/A
2:30 AM77 °FPassing clouds.5 mph94%29.71 "HgN/A
2:00 AM77 °FPassing clouds.5 mph94%29.71 "HgN/A
1:30 AM77 °FPassing clouds.No wind94%29.74 "HgN/A
1:00 AM77 °FPassing clouds.No wind94%29.74 "HgN/A
12:30 AM77 °FPassing clouds.No wind94%29.74 "HgN/A
12:00 AM79 °FPassing clouds.3 mph89%29.77 "HgN/A
11:30 PM
Thu, Mar 5
79 °FPassing clouds.No wind89%29.77 "HgN/A
11:00 PM79 °FPassing clouds.5 mph89%29.77 "HgN/A
10:00 PM81 °FPassing clouds.3 mph84%29.77 "HgN/A
9:30 PM82 °FPassing clouds.3 mph79%29.77 "HgN/A
9:00 PM82 °FPassing clouds.6 mph79%29.77 "HgN/A
8:30 PM82 °FPassing clouds.3 mph79%29.74 "HgN/A
8:00 PM82 °FPassing clouds.6 mph79%29.74 "HgN/A
7:00 PM84 °FPassing clouds.5 mph70%29.71 "HgN/A
6:00 PM86 °FScattered clouds.10 mph62%29.71 "HgN/A
5:30 PM88 °FScattered clouds.7 mph59%29.71 "HgN/A
5:00 PM88 °FScattered clouds.16 mph59%29.68 "HgN/A
4:30 PM90 °FScattered clouds.16 mph55%29.68 "HgN/A
4:00 PM90 °FScattered clouds.15 mph52%29.68 "HgN/A
3:30 PM90 °FScattered clouds.14 mph55%29.68 "HgN/A
3:00 PM91 °FScattered clouds.13 mph49%29.71 "HgN/A
2:00 PM91 °FScattered clouds.9 mph46%29.71 "HgN/A
1:30 PM91 °FScattered clouds.10 mph49%29.74 "HgN/A
1:00 PM91 °FScattered clouds.12 mph52%29.77 "HgN/A
12:00 PM90 °FScattered clouds.10 mph55%29.80 "HgN/A
11:30 AM90 °FScattered clouds.13 mph55%29.80 "HgN/A
11:00 AM90 °FSunny.15 mph55%29.83 "HgN/A
10:30 AM88 °FScattered clouds.13 mph62%29.83 "HgN/A
10:00 AM86 °FScattered clouds.10 mph66%29.83 "HgN/A
9:30 AM84 °FScattered clouds.9 mph74%29.83 "HgN/A
9:00 AM82 °FScattered clouds.13 mph79%29.83 "HgN/A
8:30 AM79 °FScattered showers. Broken clouds.10 mph84%29.83 "HgN/A
8:00 AM77 °FScattered showers. Broken clouds.9 mph89%29.83 "HgN/A
7:00 AM77 °FScattered showers. Broken clouds.2 mph94%29.80 "HgN/A
6:30 AM77 °FScattered showers. Partly sunny.8 mph89%29.80 "HgN/A
6:00 AM77 °FScattered showers. Passing clouds.9 mph89%29.77 "HgN/A
Weather by CustomWeather, © 2015

See weather overviewHow to use our weather pages